Weather History for Jordan, MT

Change the Weather History Date:

Friday, November 1, 2013

  Actual Average Record
Temperature  
Mean Temperature 42 °F 37 °F  
Max Temperature 55 °F 52 °F 75 °F (1965)
Min Temperature 29 °F 23 °F -9 °F (1984)
Degree Days  
Heating Degree Days 23 28  
Month to date heating degree days 23 28  
Since 1 July heating degree days 869 1001  
Cooling Degree Days 0 0  
Month to date cooling degree days 0 0  
Year to date cooling degree days 520 421  
Moisture  
Dew Point 27 °F    
Average Humidity 56    
Maximum Humidity 85    
Minimum Humidity 27    
Precipitation  
Precipitation 0.00 in 0.02 in 0.40 in (1974)
Month to date precipitation 0.00 0.02  
Year to date precipitation 15.98 12.04  
Snow  
Snow 0.00 in - - ()
Month to date snowfall 0.0  
Since 1 July snowfall 0.0  
Since 1 September snowfall 0.0  
Snow Depth 0.00 in    
Sea Level Pressure  
Sea Level Pressure 30.06 in    
Wind  
Wind Speed 9 mph (WNW)    
Max Wind Speed 21 mph    
Max Gust Speed 29 mph    
T = Trace of Precipitation, MM = Missing Value Source: NWS Daily Summary

Daily Weather History Graph

Daily Weather History Graph

Search for Another Location

Airport:

Trip Planner

Search our weather history database for the weather conditions in past years. The results will help you decide how hot, cold, wet, or windy it might be!

Date:

Astronomy

Nov. 01, 2013 Rise Set
Actual Time 7:51 AM MDT 5:50 PM MDT
Civil Twilight 7:19 AM MDT 6:22 PM MDT
Nautical Twilight 6:43 AM MDT 6:58 PM MDT
Astronomical Twilight 6:07 AM MDT 7:34 PM MDT
Moon 5:40 AM MDT (11/1) 4:50 PM MDT (11/1)
Length of Visible Light 11h 02m
Length of Day
9h 58m
Waning Crescent, 4% of the Moon is Illuminated
Nov 1
Waning Crescent
Nov 3
New
Nov 9
First Quarter
Nov 17
Full
Nov 25
Last Quarter

Hourly Weather History & Observations

Time (MDT) Temp. Windchill Dew Point Humidity Pressure Visibility Wind Dir Wind Speed Gust Speed Precip Events Conditions
12:48 AM 39.9 °F 31.4 °F 32.0 °F 73% 29.87 in - WNW 16.1 mph 23.0 mph N/A   Unknown
1:48 AM 39.0 °F 34.0 °F 34.0 °F 82% 29.87 in - WNW 6.9 mph - N/A   Unknown
2:48 AM 37.0 °F 29.3 °F 32.0 °F 82% 29.91 in - West 11.5 mph - N/A   Unknown
3:48 AM 36.0 °F 28.0 °F 30.9 °F 82% 29.94 in - WNW 11.5 mph - N/A   Unknown
4:48 AM 37.0 °F 29.3 °F 30.0 °F 76% 29.96 in - WNW 11.5 mph - N/A   Unknown
5:48 AM 35.1 °F 29.3 °F 28.9 °F 78% 30.03 in - WNW 6.9 mph - N/A   Unknown
6:48 AM 33.1 °F 26.1 °F 28.0 °F 82% 30.06 in - NW 8.1 mph - N/A   Unknown
7:48 AM 30.0 °F 22.4 °F 26.1 °F 85% 30.08 in - NW 8.1 mph - N/A   Unknown
8:48 AM 35.1 °F 27.4 °F 28.9 °F 78% 30.10 in - West 10.4 mph - N/A   Unknown
9:48 AM 41.0 °F 33.1 °F 30.0 °F 65% 30.11 in - WNW 15.0 mph - N/A   Unknown
10:48 AM 46.0 °F 39.0 °F 30.0 °F 54% 30.10 in - WNW 17.3 mph - N/A   Unknown
11:48 AM 48.9 °F - 28.9 °F 46% 30.10 in - WNW 18.4 mph - N/A   Unknown
12:48 PM 53.1 °F - 27.0 °F 37% 30.09 in - WNW 16.1 mph 21.9 mph N/A   Unknown
1:48 PM 54.0 °F - 25.0 °F 33% 30.08 in - WNW 15.0 mph - N/A   Unknown
2:48 PM 55.0 °F - 23.0 °F 29% 30.08 in - WNW 13.8 mph 23.0 mph N/A   Unknown
3:48 PM 54.0 °F - 21.0 °F 28% 30.07 in - West 12.7 mph - N/A   Unknown
4:48 PM 53.1 °F - 21.9 °F 30% 30.08 in - West 10.4 mph - N/A   Unknown
5:48 PM 45.0 °F 43.5 °F 23.0 °F 42% 30.10 in - West 3.5 mph - N/A   Unknown
6:48 PM 35.1 °F 32.2 °F 23.0 °F 61% 30.13 in - West 3.5 mph - N/A   Unknown
7:48 PM 33.1 °F 28.7 °F 23.0 °F 66% 30.14 in - West 4.6 mph - N/A   Unknown
8:48 PM 37.9 °F 32.7 °F 25.0 °F 60% 30.11 in - WNW 6.9 mph - N/A   Unknown
9:48 PM 30.0 °F 26.5 °F 24.1 °F 79% 30.12 in - WNW 3.5 mph - N/A   Unknown
10:48 PM 30.0 °F - 24.1 °F 79% 30.11 in - Calm Calm - N/A   Unknown
11:48 PM 28.9 °F 22.8 °F 25.0 °F 85% 30.12 in - WNW 5.8 mph - N/A   Unknown